Location: Central Springs Elementary School at Manly
(43.2859°N, 93.1959°W)
Time: 10:39:23
(UTC+00:00)

ACS3 Solar Sail - Visible Passes

Search period start: 10 October 2024 00:00
Search period end: 20 October 2024 00:00
Orbit: 960 x 1036 km, 97.4° (Epoch: 10 October)

Date Brightness Start Highest point End Pass type
(mag) Time Alt. Az. Time Alt. Az. Time Alt. Az.
10 Oct 1.9 01:41:04 42° SE 01:42:57 58° ENE 01:49:09 10° N visible
10 Oct 3.6 03:26:13 24° WSW 03:27:11 25° W 03:32:16 10° NW visible
11 Oct 3.2 00:27:58 12° E 00:31:18 18° ENE 00:35:21 10° NNE visible
11 Oct 1.8 02:13:07 60° S 02:14:25 84° WSW 02:20:48 10° NNW visible
11 Oct 4.3 03:58:15 13° W 03:59:10 13° W 04:02:03 10° WNW visible
12 Oct 2.6 00:59:59 24° E 01:02:24 30° ENE 01:07:47 10° N visible
12 Oct 2.6 02:45:08 46° WSW 02:46:02 49° W 02:52:09 10° NNW visible
13 Oct 2.0 01:32:00 41° ESE 01:33:40 51° ENE 01:39:45 10° N visible
13 Oct 3.5 03:17:09 27° WSW 03:17:48 28° W 03:23:07 10° NW visible
14 Oct 3.3 00:18:52 11° E 00:22:04 16° ENE 00:25:41 10° NNE visible
14 Oct 1.7 02:04:00 65° SSE 02:05:05 87° ENE 02:11:26 10° NNW visible
14 Oct 4.2 03:49:09 15° W 03:49:44 15° W 03:53:14 10° NW visible
15 Oct 2.8 00:50:51 22° E 00:53:06 27° ENE 00:58:14 10° N visible
15 Oct 2.4 02:36:00 53° WSW 02:36:38 55° W 02:42:49 10° NNW visible
16 Oct 2.1 01:22:51 39° ESE 01:24:19 46° ENE 01:30:15 10° N visible
16 Oct 3.3 03:07:59 31° W 03:08:20 31° W 03:13:52 10° NNW visible
17 Oct 3.4 00:09:41 10° E 00:12:45 14° ENE 00:15:51 10° NNE visible
17 Oct 1.7 01:54:49 67° SE 01:55:40 78° ENE 02:01:58 10° N visible
17 Oct 4.1 03:39:57 17° W 03:40:11 17° W 03:44:12 10° NW visible
18 Oct 2.9 00:41:39 20° E 00:43:44 24° ENE 00:48:35 10° NNE visible
18 Oct 2.2 02:26:47 61° WSW 02:27:09 62° W 02:33:23 10° NNW visible
19 Oct 2.2 01:13:36 37° E 01:14:53 40° ENE 01:20:40 10° N visible
19 Oct 3.1 02:58:45 35° W 02:58:48 35° W 03:04:29 10° NNW visible
